STARLINK-33920, 63710

Orbit data source: Space-Track

STARLINK-33920, 63710 is a payload satellite owned by SpaceX/Seattle (US) in LEO that was launched on Mon, 28 Apr 2025 UTC via an FALCON 9 launch vehicle from the Air Force Western Test Range (AFWTR). Payload-class satellites include a variety of spacecraft equipped with specific instruments for various scientific and technological missions. These include communications satellites like Starlink; space stations such as the ISS; scientific satellites like the Hubble; Earth observation satellites from companies like Planet Labs, Umbra, and HawkEye 360; GPS; miniature CubeSats for education and research; and military/defense satellites.

Loading next visibility...
Identifier
63710, 2025-087P
Orbit
LEO
Country
Flag of USUS
Related business
Manufacturer
SpaceX/Seattle
Mission
Operational Commercial Communications
Bus & Motor
STARLINK V2MO, Unknown motor
Mass
575 kg wet, ~530 kg dry
Launch date (UTC)
2025-04-28 (1 year ago)
Launch vehicle
FALCON 9
Launch site
Air Force Western Test Range (AFWTR)
Object type
Payload
Rocket body
Debris
Shape & HBR
Box + 2 Pan, 17.7 m
Radar Cross Section
36.964 m², Large (>1 m²)

Expand to show TLE details & history
Last TLE update: 21 hours ago

TLE from 21 hours ago
0 STARLINK-33920
1 63710U 25087P   26170.97608966  .00013436  00000-0  44368-3 0  9991
2 63710  53.1591 104.2027 0001654 102.1283 257.9904 15.31719805 64862
Epoch: 2026-06-19T23:25Z
TLE epoch observation values (Epoch: 2026-06-19T23:25:34.146Z)
Latitude
-0.00001°
Longitude
-155.38693°
Altitude
471.817 km
Speed
7.631 km/s
True Right ascension
06h 56m 48s
True Declination
0° 00' 00"
Sunlit
Object was in daylight at epoch
Visualization orbit readout
Latitude
Unknown
Longitude
Unknown
Altitude
Unknown
Speed
Unknown
Apparent Right ascension
Unknown
Apparent Declination
Unknown
Sunlit
N/A
Visualization observer readout
Local Sidereal Time
07:24:26
Azimuth
Unknown
Elevation
Unknown
Doppler factor
Unknown
Orbital elements
Apogee altitude
472.071 km
Perigee altitude
469.805 km
Semi-major axis
6,849.075 km
Eccentricity
0.00017
Inclination
53.1591°
RAAN
104.2027°
Arg. of periapsis
102.1283°
True anomaly
257.97186°
Mean anomaly
257.9904°
Eccentric anomaly
257.98113°
Mean motion
3.82909 °/min
Orbital period
94.02 mins
BSTAR
0.00044368
Loading maneuver chart data...
Computing Atmospheric mass density...
Loading historical data...
Loading historical data...
Loading historical data...
Loading historical data...
Loading historical data...
Loading historical data...
Loading historical data...

Documentation

Showing up to 5 results
|